Home > Weather > Vatican City > Past weeks

Flag for Vatican City State Weather for the Past 2 Weeks in Vatican City, Vatican City State

Now
54 °F

Passing clouds.


Feels Like: 53 °F
Forecast: 48 / 71 °F
Wind: 5 mph from Northeast

Location: Rome / Ciampino

Current Time: Apr 29, 2016 at 6:25:37 AM

Latest Report: Apr 29, 2016 at 5:20 AM


Visibility: N/A

Pressure: 29.92 "Hg

Humidity: 88%

Dew Point: 50 °F

Location of Vatican CityLocation

Historic Weather in Vatican City — Graph

°F

Vatican City Temperature Yesterday

Maximum temperature yesterday: 63 °F (at 3:50 PM)
Minimum temperature yesterday: 55 °F (at 5:20 AM)
Average temperature yesterday: 59 °F

High & Low Weather Summary for the Past Weeks

 TemperatureHumidityPressure
High77 °F (Apr 17, 1:50 PM)100% (Apr 19, 4:20 AM)30.24 "Hg (Apr 19, 4:20 AM)
Low43 °F (Apr 26, 12:20 AM)15% (Apr 17, 4:20 PM)29.50 "Hg (Apr 25, 5:50 AM)
Average60 °F64%29.93 "Hg
* Reported Apr 14 4:50 AM — Apr 29 4:20 AM, Vatican City, Weather by CustomWeather, © 2016

Note: Actual official high and low records may vary slightly from our data, if they occured in-between our weather recording intervals... More about our weather records

Advertising

Vatican City Weather History for the Previous 24 Hours

Scroll right to see more
 ConditionsComfort  
Time TempWeatherWind HumidityBarometerVisibility
4:20 AM
Fri, Apr 29
54 °FPassing clouds.7 mph88%29.92 "HgN/A
3:50 AM54 °FPassing clouds.8 mph88%29.92 "HgN/A
3:20 AM55 °FPassing clouds.6 mph82%29.92 "HgN/A
2:50 AM54 °FPassing clouds.6 mph94%29.92 "HgN/A
2:20 AM55 °FPassing clouds.7 mph88%29.92 "HgN/A
1:50 AM55 °FPassing clouds.7 mph88%29.92 "HgN/A
1:20 AM55 °FPassing clouds.7 mph88%29.92 "HgN/A
12:50 AM55 °FPassing clouds.7 mph88%29.92 "HgN/A
12:20 AM55 °FPassing clouds.8 mph88%29.92 "HgN/A
11:50 PM
Thu, Apr 28
55 °FPassing clouds.7 mph94%29.92 "HgN/A
11:20 PM57 °FPassing clouds.6 mph88%29.92 "HgN/A
10:50 PM57 °FClear.5 mph82%29.92 "Hg10 mi
10:20 PM57 °FPassing clouds.3 mph82%29.92 "HgN/A
9:50 PM57 °FPassing clouds.2 mph88%29.92 "HgN/A
9:20 PM57 °FPassing clouds.2 mph88%29.89 "HgN/A
8:50 PM59 °FPassing clouds.6 mph82%29.89 "HgN/A
8:20 PM59 °FLight rain. Scattered clouds.6 mph82%29.89 "Hg6 mi
7:50 PM59 °FLight rain. Passing clouds.5 mph82%29.89 "Hg6 mi
7:20 PM61 °FPassing clouds.1 mph72%29.89 "Hg6 mi
6:50 PM61 °FPassing clouds.3 mph68%29.89 "HgN/A
6:20 PM61 °FPassing clouds.2 mph68%29.89 "HgN/A
5:50 PM63 °FPassing clouds.3 mph68%29.89 "HgN/A
5:20 PM63 °FPassing clouds.6 mph68%29.89 "HgN/A
4:50 PM63 °FScattered clouds.7 mph68%29.89 "HgN/A
4:20 PM63 °FScattered clouds.5 mph64%29.89 "HgN/A
3:50 PM63 °FScattered clouds.7 mph64%29.89 "Hg6 mi
3:20 PM61 °FPartly sunny.9 mph72%29.89 "Hg6 mi
2:50 PM61 °FLight rain. Scattered clouds.7 mph72%29.92 "HgN/A
2:20 PM61 °FLight rain. Scattered clouds.6 mph83%29.95 "Hg6 mi
1:50 PM61 °FLight rain. Scattered clouds.6 mph77%29.95 "Hg6 mi
1:20 PM61 °FLight rain. Scattered clouds.7 mph72%29.95 "Hg6 mi
12:50 PM61 °FPassing clouds.5 mph68%29.95 "HgN/A
12:20 PM61 °FPassing clouds.5 mph68%29.95 "HgN/A
11:50 AM61 °FPassing clouds.6 mph72%29.95 "HgN/A
11:20 AM59 °FLight rain. Passing clouds.6 mph77%29.95 "HgN/A
10:50 AM61 °FPassing clouds.8 mph68%29.95 "HgN/A
10:20 AM61 °FPassing clouds.10 mph68%29.92 "HgN/A
9:50 AM61 °FPassing clouds.9 mph68%29.92 "HgN/A
9:20 AM61 °FPassing clouds.7 mph68%29.92 "HgN/A
7:50 AM59 °FPassing clouds.13 mph68%29.92 "HgN/A
6:50 AM57 °FPassing clouds.10 mph72%29.89 "HgN/A
Weather by CustomWeather, © 2016

See weather overviewHow to use our weather pages